Theta_e
339 339 340 339 336 335 337 338 335 337 342 347 350 349 348 346 342 342 336 333 327 320 320 319 319 322 318 317 314 310 309 315 317 314 313 313 316 316 316 316 317 317 318
327 338 340 340 339 336 336 336 336 335 339 344 348 350 348 345 343 343 337 334 328 321 321 321 319 318 319 319 317 314 312 315 315 313 312 313 315 315 315 315 316 317 317
333 330 340 340 340 339 338 336 337 338 334 341 347 348 347 346 341 343 338 335 330 322 321 322 321 319 318 318 318 316 314 316 314 312 310 314 315 314 314 315 316 316 316
339 335 340 342 341 341 340 338 339 339 337 336 342 348 347 346 341 342 339 335 332 330 323 322 322 321 319 318 317 316 316 315 312 308 303 312 314 314 314 315 315 316 316
338 332 336 342 344 343 342 341 341 340 339 339 340 349 347 345 341 342 340 335 333 330 331 329 323 322 320 318 317 315 316 313 310 305 302 311 313 313 314 315 317 316 317
331 335 339 339 341 343 343 342 341 342 341 339 340 344 340 342 341 341 340 336 335 328 326 331 326 326 323 319 317 316 312 309 308 305 303 306 310 311 314 314 315 313 315
330 325 331 338 339 341 344 343 344 342 342 342 343 344 345 342 342 342 339 337 336 332 327 330 330 329 327 325 320 317 311 309 308 306 303 302 305 307 313 314 312 312 313
321 328 327 328 324 332 341 342 343 342 341 344 343 344 343 344 343 340 339 338 338 334 330 331 331 330 329 326 323 318 313 310 309 307 304 303 302 305 309 313 311 309 310
326 323 324 329 328 321 333 340 339 341 340 343 344 343 341 341 342 343 340 340 338 336 333 332 331 331 329 326 322 321 316 310 309 308 305 303 301 301 304 307 308 307 308
334 337 325 332 333 337 336 338 339 338 330 337 344 344 343 342 342 343 342 341 339 336 336 332 332 332 329 325 323 320 314 310 309 309 306 304 303 299 300 303 304 306 306
321 325 336 338 339 338 337 328 338 338 334 335 341 343 342 343 343 342 342 341 340 339 338 333 332 331 329 325 323 321 314 310 310 309 307 304 303 299 298 299 301 304 306
332 330 329 337 340 341 340 335 337 340 339 330 334 341 341 341 341 340 340 342 340 337 335 333 333 331 329 324 322 321 314 310 310 309 308 304 303 298 297 296 297 300 305
327 330 334 327 337 340 340 340 339 338 339 340 336 331 334 339 340 339 340 340 339 337 334 334 333 330 328 324 322 319 314 310 310 309 308 305 303 299 298 295 295 296 301
325 329 331 332 333 336 339 340 339 338 339 339 340 339 335 340 340 341 341 341 340 337 334 332 331 329 327 323 323 319 314 310 310 309 308 305 303 300 298 293 295 295 296
321 324 328 331 334 335 337 338 338 338 339 339 339 340 339 337 338 338 336 340 340 338 335 332 329 328 326 322 321 317 316 310 310 309 308 305 304 301 298 293 294 295 296
312 312 312 328 332 334 335 336 336 338 339 338 338 341 339 339 340 340 339 338 340 339 338 332 329 327 324 321 321 320 316 310 310 309 308 306 304 302 298 293 294 295 296
313 312 312 320 327 331 333 334 335 337 337 339 338 338 340 339 338 339 338 338 337 338 338 329 326 325 323 321 321 320 315 312 310 309 308 306 305 302 298 293 294 295 296
314 316 313 317 321 326 331 332 334 335 335 336 338 338 337 340 339 339 338 336 336 338 335 328 325 324 323 321 321 318 314 314 311 309 308 307 305 302 298 293 294 295 297
317 318 317 315 316 320 325 328 330 333 335 335 336 337 338 339 339 337 337 335 336 336 334 327 326 324 323 321 320 319 317 314 313 310 308 308 306 303 298 293 294 295 296
319 319 319 318 316 315 320 324 327 329 333 334 335 337 338 338 338 337 334 332 335 334 329 326 325 323 322 321 321 319 317 315 313 310 309 309 307 304 298 293 294 294 295
320 320 319 319 318 317 317 321 326 328 329 332 333 335 336 338 337 337 337 332 334 334 330 326 323 321 320 321 320 319 318 315 314 313 313 311 309 305 299 295 293 293 294
320 319 319 319 319 318 316 316 322 327 329 330 332 334 335 335 336 337 337 331 333 334 334 327 323 322 319 320 320 319 317 315 315 313 313 310 307 305 299 293 293 293 293
320 320 319 319 319 319 317 311 314 322 327 327 330 332 332 333 334 334 336 335 335 332 334 332 324 321 319 320 320 319 316 315 314 312 313 308 307 305 300 293 293 293 293
319 320 319 319 319 318 314 313 310 316 320 325 327 329 331 331 331 333 337 335 335 334 331 325 321 316 316 319 317 316 315 315 313 311 310 308 307 306 301 297 294 294 293
319 319 319 318 318 317 314 312 311 321 325 326 328 331 332 332 332 334 335 334 334 327 322 318 314 315 315 314 314 314 314 313 311 311 309 308 307 305 301 300 298 295 294
318 318 317 317 317 317 315 313 312 321 325 327 327 328 331 333 334 334 334 334 328 323 320 314 314 315 312 311 310 312 312 310 309 309 308 307 306 304 302 300 299 299 299
Wind_Speed
16 14 13 12 11 11 11 11 12 12 12 11 9 8 7 8 7 4 5 3 4 5 6 8 11 9 13 15 18 19 18 16 15 19 21 21 21 22 21 20 20 19 20
22 14 14 12 12 12 12 12 12 12 12 12 12 10 10 9 11 6 5 3 3 3 3 6 8 9 9 13 16 18 18 15 18 20 21 21 21 22 22 20 20 20 19
22 18 13 14 14 13 13 13 13 12 12 14 14 12 11 10 14 10 8 7 4 3 0 2 6 8 9 11 13 15 16 15 19 21 22 21 22 23 23 21 20 20 20
20 17 15 14 14 15 14 13 13 12 13 14 14 13 11 13 14 13 10 9 8 6 4 1 3 6 7 10 13 13 13 14 20 23 24 21 22 23 23 22 19 20 20
15 16 18 13 15 15 16 15 14 14 14 15 15 14 14 14 15 13 13 11 11 10 6 10 4 4 6 9 12 14 10 16 20 24 25 21 23 23 23 21 19 18 20
10 13 15 13 17 17 19 17 16 15 15 14 15 14 15 14 15 16 15 14 13 11 10 9 7 5 8 8 10 14 14 17 21 24 25 23 22 22 23 22 20 17 20
8 9 12 15 15 19 18 18 17 17 16 15 16 12 11 13 16 15 17 16 14 14 12 11 7 8 12 12 8 13 14 16 19 23 25 25 24 24 23 23 21 19 20
10 9 10 11 13 15 17 18 19 18 17 17 15 12 10 11 15 19 18 17 17 15 15 14 11 10 6 3 10 11 13 15 17 21 25 25 24 23 23 23 23 22 19
15 15 15 13 13 12 15 19 20 17 18 16 19 16 10 14 17 16 19 18 18 16 17 15 14 12 9 7 7 11 14 15 16 19 24 25 25 23 22 23 24 24 20
14 16 17 17 16 13 14 16 22 26 30 28 20 21 21 14 9 8 13 18 18 18 17 17 14 13 11 7 10 12 13 13 14 17 22 25 25 25 21 21 23 23 23
17 15 16 17 18 17 17 15 18 24 28 29 26 20 23 21 20 16 10 11 15 16 17 18 15 13 13 10 6 11 11 11 13 16 20 24 26 26 23 21 20 22 23
10 13 13 15 17 19 19 18 16 21 28 36 30 26 22 22 25 23 20 15 13 15 15 14 16 15 13 11 10 14 11 10 11 14 19 23 25 27 26 24 21 20 21
13 13 14 14 15 17 19 20 19 19 23 28 36 39 33 30 26 22 21 16 12 11 11 13 15 15 13 12 14 11 9 9 10 13 17 21 24 27 28 27 22 21 19
14 15 16 17 17 17 19 21 21 21 21 25 29 37 39 37 33 25 21 18 14 11 12 10 15 16 15 13 15 9 9 8 9 11 15 20 23 27 28 29 24 22 20
13 15 17 19 20 19 19 21 22 23 22 24 26 31 41 42 38 32 30 24 21 14 16 15 11 17 16 16 17 9 8 6 9 9 13 18 22 26 28 29 25 24 24
19 22 23 19 20 21 21 21 23 24 24 24 24 26 29 33 32 35 32 32 23 20 16 13 14 16 18 15 16 12 10 6 9 8 11 16 21 25 27 28 26 26 26
21 22 21 20 19 20 21 24 24 24 25 25 26 28 29 30 35 25 33 36 28 27 16 13 15 16 20 18 17 14 11 6 8 7 9 13 19 22 26 26 26 27 28
19 18 18 19 21 22 22 24 26 26 26 27 27 27 30 30 34 36 32 34 30 30 22 24 18 18 20 20 17 16 11 8 6 5 8 12 16 20 23 24 26 27 29
18 17 17 19 20 22 24 26 27 29 27 28 28 29 29 29 29 28 31 30 30 28 25 26 18 18 19 20 18 15 13 12 8 11 7 9 15 17 19 23 26 27 29
20 21 20 20 23 23 24 27 29 30 29 28 30 30 30 31 33 32 41 38 32 30 30 23 19 20 20 21 17 17 15 12 10 4 5 8 12 16 20 22 24 26 27
23 24 24 23 23 24 24 25 28 30 32 31 31 31 32 31 33 37 39 45 37 35 30 27 22 22 21 24 23 19 15 13 12 9 9 6 6 5 11 18 22 24 26
27 27 27 27 26 26 27 28 31 31 30 34 35 33 33 33 37 39 41 44 41 37 34 29 26 26 26 23 22 20 17 16 13 11 10 3 3 2 7 15 19 22 23
31 30 30 30 29 29 32 34 33 37 32 33 34 34 34 34 38 37 43 41 36 33 33 31 31 27 29 25 25 22 19 17 12 11 12 7 5 3 4 12 17 20 23
34 32 31 30 31 32 35 36 33 36 37 34 35 37 36 38 39 35 41 40 37 32 29 27 26 24 24 27 25 20 21 17 13 12 13 8 7 5 3 6 15 18 22
32 31 31 31 31 33 35 36 33 33 33 34 33 35 36 39 38 31 35 41 37 37 34 29 24 25 23 24 24 22 22 18 15 15 14 9 9 7 4 3 7 14 19
33 33 34 35 33 35 36 39 34 32 33 34 36 39 39 39 35 33 36 45 45 43 37 31 26 23 23 22 21 19 20 18 16 13 15 12 13 10 4 3 5 8 9
Wind_Direction
214 216 216 212 214 215 219 217 214 218 218 219 221 224 227 222 212 222 253 332 359 17 30 40 43 32 28 16 17 20 20 27 15 10 9 9 359 3 2 354 349 344 342
227 217 222 223 222 218 220 220 221 221 216 219 227 225 224 223 223 231 228 252 311 345 33 45 47 34 30 14 18 11 18 21 12 10 8 11 1 5 2 357 352 354 348
229 226 224 230 229 226 220 223 223 223 222 221 225 227 223 221 244 245 204 201 250 252 312 26 33 25 21 14 17 7 13 18 10 8 7 10 6 9 1 359 357 360 359
225 231 228 236 237 232 230 226 227 229 229 229 228 230 228 223 236 237 210 202 200 210 226 249 1 7 3 6 12 9 13 12 6 7 8 9 9 9 5 5 3 5 2
230 234 238 232 246 240 234 229 229 229 234 228 230 224 218 218 220 234 220 214 207 201 222 262 274 315 337 351 2 8 12 0 0 5 7 10 12 9 4 4 3 6 5
235 241 250 248 231 248 242 234 228 231 231 237 231 236 236 227 227 219 222 220 216 224 206 234 265 263 307 331 348 0 356 355 357 3 6 7 11 12 2 4 5 4 5
240 244 242 248 244 243 232 237 233 232 230 230 226 223 230 222 218 214 219 227 220 228 225 221 217 242 290 309 324 348 352 351 354 1 6 3 6 12 5 5 6 1 8
247 240 249 254 254 249 254 232 229 228 235 223 216 225 226 227 225 224 224 221 224 224 237 224 226 228 227 283 281 327 348 348 349 358 3 4 3 8 8 8 8 6 10
253 263 260 255 263 267 259 249 232 219 228 237 226 229 231 240 224 224 223 223 226 227 238 225 227 227 223 224 289 316 340 343 345 354 2 3 2 4 3 9 9 9 8
256 257 260 256 254 248 247 245 244 244 218 223 230 229 234 245 225 209 224 226 225 230 227 223 226 220 220 208 222 256 315 336 340 350 360 2 1 4 1 5 7 6 10
270 271 261 257 249 250 250 251 241 239 230 226 231 226 230 238 238 246 230 216 221 226 223 227 220 217 214 206 218 273 318 330 335 345 358 2 1 5 8 10 7 4 6
271 277 272 262 252 249 248 251 249 247 240 237 229 227 230 237 239 244 246 235 224 222 220 223 215 215 210 212 208 253 304 321 326 341 355 2 2 7 11 13 12 8 3
275 277 280 276 263 258 249 248 250 248 248 242 238 234 229 232 239 241 241 231 220 209 209 214 214 208 208 204 230 255 285 308 318 335 352 2 3 7 11 13 15 14 8
276 274 277 277 273 265 254 251 249 249 249 247 244 235 237 233 228 232 243 230 227 212 218 206 205 205 204 199 227 252 269 291 309 328 349 0 2 5 11 13 15 16 14
278 282 277 273 269 265 258 253 250 247 247 249 242 240 237 239 240 235 234 235 224 220 224 221 192 200 199 197 223 209 247 280 297 318 344 358 2 4 11 13 17 20 18
285 289 286 276 271 264 260 256 251 248 243 247 245 243 239 233 232 232 229 231 226 239 250 213 195 200 192 190 216 183 209 267 279 303 336 356 0 3 10 13 18 23 21
289 288 284 276 273 269 262 257 254 249 245 246 245 240 245 238 232 234 238 236 229 231 222 196 181 208 196 183 207 183 225 198 255 280 327 352 359 1 9 10 20 24 22
285 284 283 280 273 269 265 262 259 252 251 246 247 246 248 240 239 235 239 236 229 229 209 210 194 202 193 184 200 192 182 194 210 278 322 344 355 360 8 11 20 23 24
281 279 280 284 284 273 265 261 260 261 252 248 245 244 245 242 235 226 225 230 231 229 215 213 211 199 188 183 188 183 185 185 195 259 310 344 352 359 8 17 19 22 23
272 275 277 279 282 283 269 261 258 258 259 251 249 245 245 242 236 232 231 237 228 224 208 210 203 190 185 186 187 185 186 188 196 205 259 314 358 3 10 19 20 21 24
266 269 271 273 277 280 277 264 260 259 255 254 249 246 247 243 239 235 232 228 230 227 206 202 190 189 184 189 188 190 187 188 194 188 249 306 32 360 15 17 24 21 22
263 266 265 269 272 274 274 265 252 257 258 252 250 246 246 248 241 237 241 232 236 228 216 199 196 198 192 192 184 187 181 182 184 194 199 204 151 38 25 26 28 26 26
262 260 260 263 267 271 275 278 257 250 259 258 250 246 248 247 249 251 241 235 227 230 228 220 205 202 200 189 182 180 180 180 185 181 163 167 157 122 65 27 35 34 34
256 256 259 261 265 270 274 274 265 254 254 255 256 250 246 247 255 249 243 217 215 217 209 212 223 217 211 185 190 176 172 166 172 159 167 162 166 151 110 28 39 42 44
252 254 259 263 265 269 272 271 262 255 255 251 253 244 238 246 250 248 231 210 200 194 195 200 204 206 198 190 176 167 167 168 169 173 170 171 172 151 116 90 13 40 37
252 257 261 263 263 265 267 266 258 252 249 249 252 248 244 246 245 247 237 212 191 190 188 189 186 181 178 177 183 170 169 172 171 168 182 168 174 158 116 102 71 53 26